LogoCoinalyze
    Ad-Free Version 홈 마켓 펀딩비
    선물 데이터
    • 집계된 데이터 (코인들)
    • 개별 차트
    • 글로벌 차트
    알림
    TA
    Bitcoin Ethereum BNB Ripple Tron ZCash Dogecoin Monero Chainlink UNUS SED LEO Cardano Stellar Lumens Bitcoin Cash Litecoin Hedera Cronos Polkadot Ethereum Classic Dash Algorand Cosmos Quant VeChain Bitcoin SV Decred BitTorrent Terra Tezos The Graph Iota THETA NEO Decentraland MultiversX Chiliz Horizen Golem Basic Attention Token DigiByte Qtum 0x Beam RIF Token FTX Token FUNToken Holo Zilliqa Ontology Enjin Coin Nano Verge Ravencoin aelf Mask Network Siacoin WINk Status Waves IoTeX iExec RLC Power Ledger Steem Kyber Network Crystal Ark Lisk Ardor WOO Network IOST WAX Icon Storj Wanchain Loopring Bitcoin Diamond AdEx Bitcoin Gold Augur OmiseGO NEM BitShares MonaCoin Ren Komodo V Systems Nuls Mithril SOLVE EOS Aion Maker HedgeTrade Nebulas Bread Bytom Waltonchain Polygon Metaverse ETP TomoChain GXChain Fetch.ai MaidSafeCoin Fantom QASH
    정렬 검색:
    더보기
    • API
    • 캔들 유형
    • 블로그
    • 기부
    • 연락하기
    • 사이트맵
    • Privacy Policy
    • Disclaimer
    • Theme:
    한국어
    • English
    • Français
    • Русский
    • Deutsch
    • Türkçe
    • Nederlands
    • Português (BR)
    • Español
    • 简体中文
    • 日本語
     
    로그인 / 회원가입
    Markets/ Pepe/ PEPE 로 USD/ PEPEUSD Kraken
    Trades
    WL
    채팅
    통계
    뉴스
    ⦷
    AAA
    0.000003523 321487.36000000 08:58:45
    0.000003521 352103.00000000 08:58:41
    0.000003520 213068181.81799999 08:58:16
    0.000003521 213007668.27599999 08:57:13
    0.000003520 37335900.00000000 08:57:09
    0.000003521 213007668.27599999 08:56:39
    0.000003521 37335900.00000000 08:56:20
    0.000003520 37335900.00000000 08:56:17
    0.000003518 213189312.10900000 08:56:03
    0.000003519 800369.42000000 08:55:59
    0.000003518 213189312.10900000 08:55:46
    0.000003518 161586564.61485001 08:55:38
    0.000003518 213189312.10914999 08:55:38
    0.000003517 213249928.91600001 08:55:20
    0.000003517 213249928.91631001 08:55:05
    0.000003517 0.00069000 08:55:05
    0.000003517 37335899.99931000 08:54:51
    0.000003517 213249928.91668999 08:54:51
    0.000003517 211277490.91600001 08:54:44
    0.000003518 2491418.57000000 08:54:23
    0.000003518 11771600.19000000 08:54:23
    0.000003517 1124877.00000000 08:54:13
    0.000003517 847561.00000000 08:54:12
    0.000003518 831949.97000000 08:53:29
    0.000003517 143880644.95100001 08:53:29
    0.000003518 554633.31000000 08:53:25
    0.000003517 37335900.00000000 08:52:27
    0.000003517 16992604.17100000 08:52:27
    0.000003515 568958.00000000 08:52:12
    0.000003516 11020537.54266000 08:51:59
    0.000003515 17425828.20034000 08:51:59
    0.000003513 1037284.00000000 08:51:45
    0.000003515 19910071.79966000 08:50:31
    0.000003514 34205564.20034001 08:50:31
    0.000003510 641183.00000000 08:49:57
    0.000003510 432229.00000000 08:49:47
    0.000003512 4191941.91000000 08:46:44
    0.000003512 2987645.88000000 08:46:28
    0.000003511 213569689.68123001 08:45:20
    0.000003511 161586564.61577001 08:45:20
    0.000003514 3130335.79966000 08:44:43
    0.000003513 213492741.24599999 08:44:41
    0.000003513 599787.00000000 08:44:20
    0.000003514 1916101.99965000 08:43:57
    0.000003514 0.00035000 08:43:57
    0.000003514 37335899.99965000 08:43:50
    0.000003514 213431986.34035000 08:43:50
    0.000003514 37335900.00000000 08:43:43
    0.000003514 37335900.00000000 08:43:41
    0.000003517 17257541.21520000 08:43:40
    0.000003517 37335900.00000000 08:43:40
    0.000003516 14175699.77100000 08:43:40
    0.000003516 33326080.04000000 08:43:40
    0.000003515 37335900.00000000 08:43:40
    0.000003514 322253.84000000 08:43:14
    0.000003513 213492741.24599999 08:43:14
    0.000003514 211550412.34000000 08:42:45
    0.000003514 1881574.00000000 08:42:32
    0.000003515 213371266.00200000 08:42:09
    0.000003516 4009819.96000000 08:41:58
    0.000003515 213371266.00200000 08:41:28
    0.000003514 344362.00000000 08:41:19
    0.000003514 213431986.34000000 08:41:06
    0.000003513 4302581.05500000 08:40:39
    0.000003511 1500471.00000000 08:40:32
    0.000003512 213514674.55199999 08:40:16
    0.000003515 5736774.74403000 08:39:40
    0.000003514 212862770.34000000 08:39:35
    0.000003514 569216.00000000 08:39:32
    0.000003515 550270.42000000 08:39:10
    0.000003513 161586564.61521000 08:38:26
    0.000003513 213492741.24678999 08:38:26
    0.000003513 213492741.24599999 08:38:07
    0.000003511 429461.00000000 08:37:30
    0.000003510 213675213.67500001 08:37:25
    0.000003509 176569948.00000000 08:37:23
    0.000003511 3179493.02000000 08:37:16
    0.000003509 161586564.61500001 08:37:00
    0.000003510 7104244.28600000 08:36:55
    0.000003510 28490028.49000000 08:36:54
    0.000003509 213736107.15300000 08:36:54
    0.000003509 360416.07000000 08:36:53
    0.000003508 213797035.34700000 08:36:38
    0.000003506 161586564.61515999 08:36:12
    0.000003506 213918996.00683999 08:36:12
    0.000003505 161586564.61500001 08:36:02
    0.000003506 37335900.00000000 08:35:49
    0.000003505 6150000.00000000 08:35:40
    0.000003507 15990362.13000000 08:35:40
    0.000003504 161586564.61500999 08:35:11
    0.000003504 37335900.00000000 08:35:11
    0.000003504 213996643.92798999 08:35:11
    0.000003505 37335900.00000000 08:35:05
    0.000003505 37335900.00000000 08:35:05
    0.000003507 27784331.82664000 08:35:05
    0.000003507 37335900.00000000 08:35:05
    0.000003506 37335900.00000000 08:35:05
    0.000003506 34296004.17336000 08:35:05
    0.000003506 136752136.00000000 08:34:49
    0.000003508 26670144.34253000 08:34:37
    로그아웃
    AAA
    고객 센터
    🙂 🤣 😎 🤗 😛 😉 😜 🤑 🤔 😑 😴 😕 🙃 😲 😇 🙁 😢 😬 😟 😠 🕺 🏃 💪 ✌ 👌 👍 👎 👏 👋 🤝 🍺 🍻 🐋 🐟 🦈 🗽 🚄 ✈ 🛑 🚀 🏦 🌚 ⭐ 🌞 ⚡ 🏆 💰 💲 🔨 ❓ ❗ 💯 🔶 🏁
    ☺
    로그인 또는 회원가입 및 채팅
    24시간
    변동
    -4.03%
    거래량
    925,686,782,656
    고가
    0.000003718
    저가
    0.000003444
    7일
    변동
    -4.58%
    거래량
    4,037,313,570,427
    고가
    0.000003876
    저가
    0.000003363
    30일
    변동
    +22.62%
    거래량
    16,257,068,396,626
    고가
    0.000004550
    저가
    0.000002530
    DOGE, SHIB, PEPE, or Something Else: Which Meme Coin Can Make History in September? (3 AIs Weigh In)
    "DOGE remains the most likely to record the largest move in dollar terms and lead the entire sector," ChatGPT stated.
    cryptopotato.com
    Sept 3, 2026 00:41
    Pepe price rallies 25% as whale demand and futures interest surge
    Key takeaways Pepe has gained 25% this week, including a combined 22% advance over the previous two days. Seven whale transactions worth more than $1 million each occurred Thursday, the highest...
    coinjournal.net
    Aug 21, 2026 08:41
    PEPE Supply on Exchanges Just Took a Massive Hit – What’s Next?
    A drop in PEPE exchange balances has added to bullish expectations despite muted trader interest.
    cryptopotato.com
    Aug 6, 2026 20:02
    PEPE Exchange Outflows Hit Nearly 2-Year High as Whales Accumulate
    Pepe (PEPE) recorded its largest single-day exchange outflow since November 2024, with 4.54 trillion tokens leaving trading platforms, signaling that holders are moving supply away from immediate...
    beincrypto.com
    Aug 6, 2026 04:57
    Meme Coin Based on White House Shooter Conspiracy Rallies 320%
    $HENRY surged 300% after a 2023 Pepe tweet appeared to name the White House shooter, fueling a viral time-travel meme. The post Meme Coin Based on White House Shooter Conspiracy Rallies 320%...
    beincrypto.com
    Apr 27, 2026 16:11
    PEPE surges 4% as market sentiment improves, eyes Key resistance breakout
    Key takeaways Pepe extends gains on Wednesday, stretching its rally from the 50-day EMA. Derivatives data show heightened retail activity as risk-on sentiment returns to the market. Pepe (PEPE) is...
    coinjournal.net
    Apr 22, 2026 11:44
    Why The PEPE Price Could Stage A 55X Rally To Reach New $0.0001 ATH
    The PEPE price has now started to edge back into bullish conversations after the recent inflows into the crypto market. The last time PEPE’s weekly chart printed the kind of structure now...
    newsbtc.com
    Apr 21, 2026 15:30
    Pepe (PEPE) surges 9%, drawing interest from whales
    Key takeaways PEPE is up 9% in the last 24 hours, making it one of the best performers among the top 50 cryptocurrencies by market cap. The rally comes amid renewed interest from whales and retail...
    coinjournal.net
    Apr 16, 2026 07:40
    Murad Says SPX6900 (SPX) Is Primed for a Rally — Is He Right This Time?
    Crypto influencer Murad Mahmudov claims SPX6900 (SPX) is stabilizing at the same market cap level where Dogecoin (DOGE) and Pepe (PEPE) consolidated before their explosive rallies. The...
    beincrypto.com
    Apr 5, 2026 21:36
    The Shiba Inu Of This Cycle: Analyst Shares Why It Is Better To Buy PEPE Now
    In the bull market cycle of 2021-2022, the Shiba Inu meme coin made waves in a way that changed the face of meme coins forever. This came after Dogecoin’s initial 36,000% rally, and Shiba Inu...
    newsbtc.com
    Apr 4, 2026 07:30
    PEPE Explodes by 18% Amid Altcoin Rally, BTC Tapped $74K: Market Watch
    The frog-themed meme coin is today's biggest gainer, followed by TAO, DOT, and BONK.
    cryptopotato.com
    Mar 16, 2026 10:56
    Should PEPE traders brace for volatility as short squeeze potential builds?
    The memecoin market has seen its collective market capitalization drop by 48% over the past year, and 6.9% over the past month, according to CoinMarketCap. According to Glassnode, the memecoin...
    ambcrypto.com
    Mar 7, 2026 18:00
    간단히 명령어를 채팅방에 입력하세요. Nick1을 실제 사용할 닉네임으로 바꾸세요
    • /ignore nick1 채팅 사용자를 차단합니다
    • /unignore nick1 채팅 사용자를 차단 해제합니다
    • /ignorelist 차단된 채팅 사용자 보기